Location: Home
(42.5358°N, 72.7383°W)
Time: 15:36:36
(UTC-05:00)

Vanguard 1 - Pass Details

Date: 03 December 2021
Orbit: 652 x 3830 km, 34.2° (Epoch: 19 January)

Event Time Altitude Azimuth Distance (km) Brightness Sun altitude
Rises 06:46:33 0° 283° (WNW) 7,484 - -3.6°
Exits shadow 06:47:20 - 282° (WNW) 7,316 13.9 -3.4°
Reaches altitude 10° 06:53:31 10° 272° (W) 5,989 13.5 -2.4°
Maximum altitude 07:05:17 23° 229° (SW) 3,897 13.0 -0.5°
Drops below altitude 10° 07:13:22 10° 182° (S) 3,953 13.6 0.7°
Sets 07:16:48 0° 167° (SSE) 4,515 14.2 1.3°
